Regional Weather Roundup
Issued by NWS

Home | Current Version | Previous Version | Graphics & Text | Print | Product List | Glossary On
Versions: 1 2 3 4 5 6 7 8 9 10 11 12 13 14 15 16 17 18 19 20 21 22 23 24 25 26 27 28 29 30 31 32 33 34 35 36 37 38 39 40 41 42 43 44 45 46 47 48 49 50
000
ASUS44 KMEG 250010
RWRTN
TENNESSEE HOURLY STATE WEATHER ROUNDUP
NATIONAL WEATHER SERVICE MEMPHIS TN
700 PM CDT THU APR 24 2014

TNZ002-004-019-021-049-052-054-088>092-250100-
WEST TENNESSEE

CITY           SKY/WX    TMP DP  RH WIND       PRES   REMARKS
MEMPHIS INTL   TSTM      68  62  81 S9G21     29.70F
NWS MEMPHIS      N/A     68 N/A N/A MISG        N/A
JACKSON        LGT RAIN  72  55  55 W6        29.78R
DYERSBURG      CLOUDY    70  52  52 SE18      29.66F
UNION CITY     CLOUDY    70  55  60 SE9       29.67F
PARIS          PTCLDY    71  51  49 S8        29.76R
LEXINGTON      CLEAR     73  52  46 SW5       29.79R
SAVANNAH       CLOUDY    77  53  43 S10       29.79S
$$

TNZ008-025-027-028-033-062-065-066-250100-
NORTH MIDDLE TENNESSEE

CITY           SKY/WX    TMP DP  RH WIND       PRES   REMARKS
NASHVILLE      MOCLDY    76  48  37 S8        29.80S
DICKSON        MOCLDY    75  46  35 S9        29.79R
CLARKSVILLE    PTCLDY    75  47  36 S9        29.76R
SMYRNA         MOCLDY    76  49  38 S5        29.81S
COOKEVILLE     CLEAR     70  52  52 CALM      29.83F
CROSSVILLE     MOCLDY    70  37  29 VRB7      29.89F
$$

TNZ061-075-076-078-094-096-097-250100-
SOUTH MIDDLE TENNESSEE

CITY           SKY/WX    TMP DP  RH WIND       PRES   REMARKS
LEWISBURG      MOCLDY    74  54  49 CALM      29.81S
TULLAHOMA      CLEAR     73  48  40 S7        29.86R
WINCHESTER     CLEAR     75  48  38 S5        29.86R
MCMINNVILLE    CLEAR     73  50  43 SW3       29.84S
COLUMBIA       PTCLDY    75  59  57 S7        29.80R
SHELBYVILLE    MOCLDY    73  54  49 S7        29.83F
$$

TNZ017-018-042-046-047-250100-
NORTHEAST TENNESSEE

CITY           SKY/WX    TMP DP  RH WIND       PRES   REMARKS
TRI CITIES     MOCLDY    71  29  21 CALM      29.90F
ELIZABETHTON   CLEAR     61  43  51 CALM      29.91S
$$

TNZ012-013-036-069-073-074-250100-
CENTRAL EAST TENNESSEE

CITY           SKY/WX    TMP DP  RH WIND       PRES   REMARKS
KNOXVILLE      CLOUDY    70  38  31 SW6       29.87F
OAK RIDGE      MOCLDY    74  37  26 SW3       29.88F
$$

TNZ083-085-099-250100-
SOUTHEAST TENNESSEE

CITY           SKY/WX    TMP DP  RH WIND       PRES   REMARKS
CHATTANOOGA    MOCLDY    77  47  34 S6        29.85F
$$

SKY/WX REPORTED AS FAIR MEANS FEW OR NO CLOUDS BELOW
12 THOUSAND FEET.




USA.gov is the U.S. government's official web portal to all federal, state and local government web resources and services.